STARLINK-11565, 62912

Orbit data source: Space-Track

STARLINK-11565, 62912 is a payload satellite owned by SpaceX/Seattle (US) in LEO that was launched on Sat, 08 Feb 2025 UTC via an FALCON 9 launch vehicle from the Air Force Eastern Test Range (AFETR). Payload-class satellites include a variety of spacecraft equipped with specific instruments for various scientific and technological missions. These include communications satellites like Starlink; space stations such as the ISS; scientific satellites like the Hubble; Earth observation satellites from companies like Planet Labs, Umbra, and HawkEye 360; GPS; miniature CubeSats for education and research; and military/defense satellites.

Loading next visibility...
Identifier
62912, 2025-027F
Orbit
LEO
Last TLE update
21 hours ago
Origin
Manufacturer
SpaceX/Seattle
Mission
Operational Commercial Communications
Bus & Motor
STARLINK V2M, Unknown motor
Mass
730 kg wet, ~700 kg dry
Launch date (UTC)
2025-02-08 (3 months ago)
Launch vehicle
FALCON 9
Launch site
Air Force Eastern Test Range (AFETR)
Object type
Payload
Rocket body
Debris
Shape & HBR
Box + 2 Pan, 29 m
Radar Cross Section
36.964 m², Large (>1 m²)

Expand to show TLE details & history

TLE from 21 hours ago
0 STARLINK-11565
1 62912U 25027F   25128.40732785  .00000422  00000-0  67840-5 0  9998
2 62912  43.0004  27.4055 0001588 274.6122  85.4564 15.70831507 15142
Epoch: 2025-05-08T09:46Z
Definitive object data (Epoch: 2025-05-08T09:46:33.126Z)
Latitude
-0.00002°
Longitude
14.28918°
Altitude
356.206 km
Speed
7.697 km/s
True Right ascension
01h 49m 37s
True Declination
0° 00' 00"
Sunlit
Object was in daylight at TLE epoch
Visualization TLE readout
Latitude
-19.70593°
Longitude
-148.46536°
Altitude
360.496 km
Speed
7.694 km/s
Apparent Right ascension
16h 02m 37s
Apparent Declination
-76° 27' 20"
Sunlit
Object is in full shadow
Visualization observer readout
Local Sidereal Time
14:38:54
Azimuth
174.606° S
Elevation
-27.132°
Doppler factor
1
Orbital elements
Apogee altitude
359.571 km
Perigee altitude
357.431 km
Semi-major axis
6,736.638 km
Eccentricity
0.0001588
Inclination
43.0004°
RAAN
27.4055°
Arg. of periapsis
274.6122°
True anomaly
85.47454°
Mean anomaly
85.4564°
Eccentric anomaly
85.46547°
Mean motion
3.92535 °/min
BSTAR
0.000006784
Orbital period
91.71 mins
Loading maneuver chart data...
Loading SW <> Apogee altitude chart data...
Loading historical data...
Loading historical data...
Loading historical data...
Loading historical data...
Loading historical data...
Loading historical data...
Loading historical data...

STARLINK-11565 Visibility forecast

Observer location: undefined°, undefined°

Span
Click to sort rows by Start time (UTC) header in descending order
Start Az.
Max El. time (UTC)
Max El. Az.
Max El.
End time (UTC)
End Az.
4 mins2025-05-09 21:08:03.911Z246.451° WSW2025-05-09 21:10:03.911Z101.369° ESE44.015°2025-05-09 21:12:03.911Z73.477° E
4 mins2025-05-10 00:21:03.911Z297.442° NW2025-05-10 00:22:03.911Z324.564° NNW40.39°2025-05-10 00:25:03.911Z98.377° ESE
|